STARLINK-1188 (45220 NORAD) Tracking and Keplerian Element Data

This shows tracking and keplerian element data for the satellite.

Feedback or suggestion? Click here.




ElementValue
Catalog45220
NameSTARLINK-1188
Epoch Orbit657
Epoch Day88.25001157
Epoch Year2020
RAAN72.265
Inclination52.9991
Eccentricity0.0001537
Argument of Perigee68.0906
Mean Anonmoly112.4672
Mean Motion15.62755905
Decay Rate5.411E-05
L11 45220U 20012AU 20088.25001157 .00005411 00000-0 64886-4 0 9994
L22 45220 52.9991 72.2650 0001537 68.0906 112.4672 15.62755905 6573

Live tracking and technical data element details for STARLINK-1188 (NORAD 45220). STARLINK-1188 can be tracked NOW for your location showing map with azimuth and elevation plus other details from your city location.

Track the satellite on the map from your city or location and see movement details for azimuth, elevation, latitude, longitude, range, height, and movement on the map or in text.







IsCatalogInMostPopularTable: catalog: 45220, numindb: 5
Update: records affected: 1



GetName: 45220 STARLINK-1188

Hit Count: updated at: Tue, 31 Mar 2020 13:51:50 GMT